Precipitable_Water
0.37 0.41 0.42 0.39 0.39 0.38 0.33 0.33 0.29 0.32 0.34 0.38 0.39 0.40 0.37 0.43 0.47 0.45 0.45 0.44 0.49 0.52 0.54 0.57 0.60 0.62 0.65 0.65 0.70 0.76 0.76 0.78 0.79 0.90 1.00 1.07 1.17 1.14 1.16 1.15 1.18 1.16 1.15 1.11
0.32 0.35 0.36 0.35 0.37 0.38 0.39 0.37 0.36 0.37 0.35 0.45 0.46 0.46 0.44 0.43 0.45 0.47 0.47 0.47 0.49 0.54 0.58 0.59 0.61 0.62 0.65 0.66 0.66 0.70 0.69 0.69 0.84 0.92 1.00 1.06 1.12 1.09 1.09 1.09 1.12 1.11 1.07 1.10
0.26 0.34 0.31 0.23 0.35 0.40 0.40 0.39 0.37 0.32 0.41 0.47 0.46 0.46 0.46 0.44 0.46 0.49 0.52 0.54 0.53 0.52 0.57 0.62 0.61 0.64 0.64 0.71 0.73 0.71 0.72 0.73 0.82 0.91 0.95 1.00 1.03 1.02 0.97 0.97 1.04 1.02 1.02 1.03
0.23 0.26 0.17 0.20 0.30 0.39 0.43 0.42 0.42 0.40 0.43 0.49 0.49 0.50 0.48 0.46 0.45 0.46 0.54 0.55 0.57 0.56 0.56 0.61 0.69 0.74 0.74 0.79 0.78 0.77 0.80 0.79 0.82 0.89 0.92 0.96 0.98 0.96 0.94 0.96 0.96 0.96 0.97 0.87
0.17 0.18 0.20 0.20 0.21 0.26 0.44 0.39 0.48 0.41 0.43 0.44 0.51 0.50 0.45 0.46 0.48 0.47 0.46 0.49 0.52 0.57 0.56 0.61 0.68 0.76 0.79 0.78 0.79 0.79 0.78 0.78 0.83 0.86 0.89 0.89 0.87 0.89 0.91 0.91 0.93 0.88 0.76 0.72
0.21 0.15 0.12 0.13 0.20 0.36 0.45 0.29 0.50 0.53 0.46 0.42 0.44 0.38 0.41 0.49 0.47 0.47 0.49 0.52 0.50 0.55 0.59 0.61 0.68 0.77 0.78 0.76 0.75 0.76 0.82 0.82 0.90 0.92 0.90 0.90 0.93 0.92 0.94 0.88 0.75 0.69 0.67 0.67
0.22 0.21 0.21 0.27 0.32 0.40 0.29 0.36 0.58 0.59 0.57 0.52 0.40 0.39 0.43 0.53 0.50 0.49 0.51 0.54 0.57 0.58 0.58 0.64 0.74 0.79 0.75 0.74 0.76 0.85 0.88 0.89 0.90 0.93 0.92 0.93 0.92 0.85 0.75 0.68 0.65 0.62 0.60 0.60
0.25 0.21 0.16 0.35 0.41 0.31 0.45 0.62 0.62 0.65 0.61 0.56 0.56 0.52 0.49 0.50 0.53 0.53 0.52 0.55 0.61 0.61 0.63 0.73 0.80 0.79 0.73 0.76 0.85 0.87 0.86 0.85 0.84 0.84 0.86 0.86 0.75 0.68 0.64 0.61 0.58 0.57 0.56 0.56
0.25 0.22 0.35 0.47 0.47 0.53 0.55 0.56 0.65 0.67 0.69 0.63 0.59 0.56 0.56 0.56 0.58 0.57 0.57 0.60 0.65 0.66 0.69 0.71 0.76 0.77 0.74 0.82 0.85 0.82 0.78 0.75 0.74 0.74 0.72 0.68 0.62 0.59 0.57 0.57 0.56 0.55 0.54 0.52
0.25 0.26 0.33 0.38 0.50 0.50 0.54 0.58 0.69 0.68 0.72 0.70 0.65 0.64 0.61 0.57 0.62 0.64 0.66 0.65 0.69 0.70 0.70 0.71 0.77 0.82 0.86 0.87 0.83 0.75 0.69 0.69 0.70 0.66 0.62 0.62 0.61 0.60 0.59 0.58 0.56 0.55 0.53 0.50
0.27 0.28 0.39 0.42 0.50 0.47 0.53 0.62 0.68 0.66 0.70 0.73 0.71 0.67 0.65 0.63 0.64 0.68 0.69 0.72 0.74 0.74 0.75 0.77 0.80 0.79 0.80 0.77 0.74 0.69 0.67 0.66 0.65 0.64 0.63 0.62 0.61 0.60 0.59 0.60 0.60 0.56 0.54 0.51
0.27 0.43 0.48 0.48 0.53 0.57 0.52 0.57 0.61 0.67 0.64 0.70 0.71 0.69 0.69 0.72 0.72 0.73 0.75 0.80 0.78 0.79 0.78 0.77 0.77 0.75 0.73 0.72 0.69 0.66 0.63 0.63 0.64 0.63 0.62 0.60 0.58 0.55 0.57 0.58 0.58 0.58 0.57 0.54
0.41 0.47 0.53 0.59 0.62 0.61 0.59 0.64 0.69 0.69 0.66 0.61 0.70 0.72 0.73 0.73 0.76 0.77 0.78 0.77 0.78 0.78 0.78 0.78 0.76 0.73 0.73 0.72 0.71 0.69 0.66 0.65 0.64 0.61 0.60 0.58 0.56 0.55 0.52 0.53 0.53 0.52 0.49 0.45
0.54 0.52 0.52 0.59 0.54 0.58 0.57 0.62 0.62 0.60 0.59 0.61 0.62 0.72 0.73 0.73 0.72 0.71 0.76 0.80 0.80 0.78 0.78 0.76 0.75 0.73 0.74 0.73 0.72 0.69 0.67 0.65 0.63 0.61 0.59 0.56 0.54 0.52 0.51 0.49 0.46 0.45 0.47 0.46
0.53 0.56 0.58 0.63 0.61 0.57 0.57 0.54 0.52 0.51 0.56 0.59 0.62 0.61 0.62 0.63 0.67 0.68 0.73 0.73 0.75 0.77 0.77 0.76 0.74 0.73 0.73 0.72 0.69 0.65 0.63 0.61 0.60 0.59 0.58 0.57 0.55 0.53 0.51 0.49 0.48 0.46 0.45 0.45
0.53 0.57 0.61 0.59 0.55 0.55 0.53 0.51 0.50 0.50 0.50 0.53 0.58 0.63 0.62 0.60 0.61 0.68 0.72 0.70 0.67 0.68 0.72 0.70 0.69 0.69 0.67 0.67 0.67 0.64 0.62 0.60 0.58 0.56 0.54 0.53 0.51 0.48 0.47 0.45 0.43 0.42 0.40 0.39
0.49 0.51 0.53 0.53 0.53 0.52 0.52 0.52 0.52 0.50 0.48 0.51 0.51 0.54 0.56 0.60 0.63 0.65 0.66 0.67 0.69 0.67 0.64 0.63 0.62 0.62 0.60 0.59 0.58 0.56 0.55 0.53 0.52 0.50 0.48 0.47 0.45 0.43 0.42 0.40 0.38 0.37 0.36 0.36
0.53 0.54 0.54 0.54 0.52 0.52 0.54 0.57 0.57 0.58 0.57 0.57 0.56 0.55 0.53 0.53 0.54 0.56 0.57 0.57 0.56 0.56 0.55 0.55 0.56 0.57 0.56 0.54 0.52 0.50 0.49 0.47 0.46 0.44 0.43 0.41 0.40 0.39 0.37 0.36 0.35 0.33 0.33 0.33
0.51 0.52 0.53 0.53 0.53 0.54 0.55 0.54 0.55 0.56 0.57 0.55 0.54 0.53 0.54 0.53 0.52 0.51 0.51 0.51 0.50 0.49 0.49 0.50 0.50 0.50 0.49 0.48 0.47 0.45 0.43 0.42 0.40 0.39 0.37 0.37 0.36 0.35 0.33 0.32 0.31 0.30 0.29 0.28
0.47 0.47 0.46 0.48 0.49 0.49 0.49 0.49 0.49 0.47 0.46 0.47 0.49 0.50 0.49 0.48 0.47 0.45 0.44 0.43 0.42 0.42 0.44 0.42 0.43 0.43 0.42 0.42 0.41 0.40 0.39 0.38 0.36 0.35 0.34 0.33 0.32 0.31 0.30 0.28 0.27 0.24 0.21 0.18
0.43 0.44 0.43 0.44 0.43 0.42 0.41 0.41 0.42 0.44 0.46 0.46 0.45 0.44 0.44 0.44 0.44 0.43 0.41 0.39 0.39 0.40 0.40 0.40 0.40 0.40 0.39 0.38 0.37 0.36 0.35 0.33 0.32 0.30 0.28 0.26 0.24 0.21 0.18 0.16 0.15 0.14 0.13 0.12
0.39 0.40 0.42 0.42 0.42 0.42 0.43 0.44 0.43 0.43 0.43 0.42 0.42 0.41 0.40 0.39 0.39 0.39 0.39 0.37 0.38 0.38 0.37 0.37 0.36 0.35 0.34 0.32 0.30 0.28 0.26 0.23 0.20 0.17 0.15 0.14 0.13 0.12 0.11 0.10 0.10 0.09 0.09 0.09
0.39 0.40 0.40 0.39 0.38 0.39 0.40 0.40 0.41 0.40 0.40 0.39 0.38 0.38 0.37 0.37 0.36 0.34 0.33 0.35 0.34 0.34 0.32 0.30 0.28 0.25 0.22 0.18 0.15 0.13 0.12 0.11 0.10 0.10 0.09 0.09 0.09 0.08 0.08 0.08 0.08 0.08 0.08 0.08
0.38 0.38 0.38 0.38 0.38 0.37 0.36 0.36 0.36 0.36 0.36 0.35 0.35 0.34 0.32 0.30 0.29 0.28 0.26 0.23 0.20 0.17 0.14 0.12 0.11 0.10 0.10 0.09 0.09 0.09 0.08 0.08 0.08 0.08 0.08 0.08 0.08 0.07 0.07 0.07 0.07 0.07 0.07 0.07
0.36 0.35 0.35 0.34 0.32 0.32 0.31 0.31 0.29 0.28 0.27 0.25 0.23 0.22 0.20 0.18 0.15 0.14 0.14 0.13 0.12 0.11 0.11 0.10 0.10 0.09 0.09 0.08 0.08 0.08 0.08 0.08 0.08 0.07 0.07 0.07 0.07 0.07 0.07 0.07 0.06 0.06 0.06 0.06
0.30 0.29 0.28 0.27 0.26 0.24 0.23 0.21 0.18 0.17 0.15 0.13 0.13 0.13 0.13 0.13 0.12 0.12 0.11 0.10 0.10 0.09 0.08 0.08 0.08 0.07 0.07 0.07 0.07 0.07 0.07 0.07 0.07 0.07 0.06 0.06 0.06 0.06 0.06 0.06 0.06 0.06 0.06 0.06
0.24 0.22 0.20 0.19 0.18 0.16 0.14 0.13 0.11 0.10 0.10 0.10 0.09 0.10 0.10 0.10 0.10 0.09 0.09 0.08 0.08 0.07 0.07 0.07 0.07 0.06 0.06 0.07 0.07 0.07 0.07 0.07 0.07 0.06 0.06 0.06 0.06 0.06 0.06 0.06 0.06 0.06 0.06 0.06
Wind_Speed
24 24 22 26 29 31 31 31 30 26 28 26 24 23 23 21 20 20 20 20 19 20 21 19 20 20 20 20 21 22 24 26 27 27 27 27 27 25 24 24 25 25 26 26
27 26 22 26 33 34 34 31 28 28 29 27 25 23 22 23 24 23 22 21 22 23 22 20 21 21 22 22 21 21 22 25 25 24 24 25 25 25 24 25 25 25 26 26
25 24 23 26 21 27 35 36 30 31 28 27 27 27 26 27 26 27 28 25 24 24 25 24 24 23 22 20 19 20 21 22 24 25 25 25 26 25 25 24 23 23 24 25
25 22 24 30 26 27 32 37 38 34 29 26 27 26 26 25 27 27 26 27 26 28 25 27 26 24 22 21 21 20 21 22 22 24 25 25 26 26 25 24 23 24 25 25
23 24 28 30 27 23 21 32 31 38 36 32 30 26 28 26 25 26 27 29 29 28 27 25 26 25 23 23 22 22 22 21 21 22 23 24 24 24 24 25 25 25 25 26
20 21 26 34 26 19 23 35 26 25 30 37 32 33 31 27 26 27 26 24 24 24 25 25 25 25 24 24 23 22 22 21 21 21 22 22 23 24 24 24 24 25 25 26
20 21 24 24 22 19 20 24 25 25 25 26 31 38 35 32 30 29 28 27 26 25 25 26 25 25 24 24 24 23 22 21 21 22 22 23 23 23 23 23 24 24 24 24
17 17 22 20 16 16 19 29 28 26 25 25 24 25 29 31 30 28 27 26 27 25 23 24 25 25 24 24 24 23 23 23 22 22 22 23 23 23 24 24 25 25 25 25
19 19 18 18 19 20 19 19 25 24 26 24 24 22 22 23 24 26 24 23 22 22 21 22 23 25 24 25 24 24 23 23 23 22 22 23 24 24 25 25 26 27 27 28
22 24 23 22 21 22 19 17 22 22 23 23 21 21 22 21 20 19 18 18 19 21 22 22 23 23 24 24 24 24 23 23 23 22 22 23 24 26 26 28 29 29 30 31
27 26 24 25 22 20 21 19 18 19 20 19 20 20 20 21 21 21 20 19 19 20 20 21 21 21 22 23 23 23 23 23 23 23 24 24 25 27 28 30 31 32 32 33
22 16 20 20 19 18 18 20 18 18 18 20 20 20 21 21 20 21 22 22 21 20 19 20 20 21 21 22 22 22 22 23 24 25 25 26 26 27 27 29 30 32 33 34
22 23 22 20 17 14 13 15 16 17 18 20 23 20 19 19 20 20 19 21 21 22 20 21 20 20 21 21 21 22 23 24 25 25 26 27 28 29 30 31 31 33 34 36
19 19 19 17 18 17 15 14 14 14 15 17 19 21 20 19 20 19 23 23 22 21 21 20 19 20 22 22 21 21 22 23 24 26 27 28 29 31 32 34 35 36 37 38
18 16 19 19 17 17 16 15 15 16 15 15 14 14 17 17 17 18 20 19 18 18 18 19 20 20 21 22 22 23 23 24 24 26 28 29 31 32 34 35 37 38 39 40
21 18 17 16 17 17 17 15 15 15 14 14 13 13 13 13 14 16 18 21 21 22 21 20 19 20 21 21 20 21 23 25 26 28 29 31 32 32 34 36 37 38 38 39
18 18 19 17 17 16 15 14 14 14 14 13 13 13 12 12 12 12 15 17 18 17 17 18 20 20 21 22 23 25 26 28 28 29 30 31 32 34 35 36 36 37 38 39
15 15 16 17 17 16 15 14 13 13 12 12 12 12 12 12 12 13 14 15 16 17 18 19 20 21 23 24 25 26 27 28 29 30 31 33 33 34 34 34 35 36 38 39
10 12 11 12 14 14 13 12 12 11 12 12 12 12 12 12 13 14 15 15 16 16 18 19 20 20 22 23 24 26 26 27 28 30 30 31 32 33 35 36 37 39 40 42
7 8 9 9 11 12 11 11 11 11 11 11 11 10 10 11 12 12 12 12 14 16 17 19 20 21 22 23 24 25 26 27 28 30 31 33 34 35 37 38 40 42 44 46
4 4 4 4 4 5 5 5 5 5 6 6 6 7 7 8 8 9 11 13 14 15 17 18 19 20 22 23 24 26 27 29 30 32 34 35 37 39 40 42 44 46 47 48
3 2 1 2 3 3 3 2 1 2 2 3 3 4 5 6 7 8 10 11 13 14 16 18 20 22 24 26 27 29 31 32 34 36 37 39 40 42 43 44 45 47 48 49
5 5 6 7 6 5 4 3 2 1 2 3 5 6 8 10 11 13 14 16 17 19 20 22 24 26 28 30 31 33 34 35 36 37 38 40 41 42 43 44 45 46 46 46
5 4 3 2 2 2 2 4 4 5 6 8 9 11 12 13 15 16 17 19 21 23 24 26 28 30 31 32 33 34 35 36 37 38 39 40 41 41 42 42 43 43 44 45
1 2 3 4 6 7 7 8 9 11 12 13 14 15 16 18 19 21 22 24 25 27 28 30 31 32 33 34 35 36 36 37 37 37 38 38 39 40 40 40 40 40 41 41
5 7 8 9 11 12 13 14 15 16 17 18 19 21 21 22 23 24 25 27 28 29 30 31 32 33 33 34 34 34 34 35 35 36 36 37 36 36 36 37 37 37 37 37
10 12 13 14 16 17 18 18 19 20 21 22 23 24 25 25 26 26 27 28 29 29 30 31 31 32 32 32 32 32 32 32 32 32 32 32 33 33 34 34 35 35 35 34
Wind_Direction
242 248 254 257 254 248 246 244 243 250 249 251 250 254 253 253 253 251 252 251 245 246 244 255 251 243 246 249 252 255 256 255 255 255 255 255 252 255 258 256 257 258 255 258
246 248 252 258 256 252 250 251 252 253 254 250 250 249 254 257 251 252 250 251 247 245 254 254 248 247 254 258 258 257 260 257 254 254 254 253 252 253 255 257 259 258 258 260
247 249 259 253 253 258 252 249 246 249 253 253 250 249 253 258 252 253 250 252 251 248 252 251 250 251 254 256 257 259 263 264 256 254 255 253 252 252 255 257 254 257 260 260
251 254 249 250 252 265 260 254 248 248 248 254 250 251 253 256 255 255 251 252 254 253 251 252 249 250 252 253 257 262 269 269 262 256 254 254 253 253 254 255 256 259 263 264
253 251 258 256 249 257 259 264 261 244 246 250 254 257 253 253 257 253 253 253 253 251 253 253 245 245 248 252 258 264 270 269 261 257 256 254 252 250 252 256 259 261 264 267
254 255 254 256 251 258 270 256 244 252 250 246 247 250 251 253 256 255 258 251 251 251 252 247 243 243 245 251 259 266 266 266 260 258 256 254 252 252 254 256 258 262 266 268
254 262 262 252 256 254 257 249 256 257 257 254 247 250 251 249 256 254 255 252 252 252 251 247 242 242 247 254 261 264 265 265 262 261 258 255 254 252 253 255 259 263 266 268
251 259 266 251 248 245 254 262 255 252 255 255 258 259 250 249 251 251 253 253 251 251 247 241 241 246 252 257 260 262 264 266 265 262 259 256 254 255 256 257 260 263 265 269
248 253 263 253 255 254 263 266 253 250 254 254 258 257 252 251 253 251 249 246 245 241 243 246 248 251 253 255 257 262 263 265 263 261 258 257 257 258 259 260 262 265 267 269
255 255 262 267 254 256 259 266 253 252 252 252 254 256 253 252 252 249 247 245 244 243 245 250 255 256 254 256 259 260 262 262 260 259 259 259 260 261 261 263 265 267 269 271
255 260 264 261 264 264 255 253 256 255 247 251 254 255 256 250 247 247 245 249 250 246 247 254 255 256 257 258 258 261 261 259 259 259 259 261 264 265 266 267 268 269 271 272
251 258 257 258 268 273 259 252 262 255 258 256 257 260 254 253 249 244 245 247 250 248 251 257 258 258 260 260 259 259 260 260 259 260 261 263 264 267 271 271 272 272 273 274
254 260 259 259 258 271 268 266 267 265 267 266 259 257 250 253 249 243 248 250 245 249 252 259 262 264 263 263 262 262 262 261 262 262 264 265 267 269 270 274 275 276 277 278
261 258 247 258 263 268 275 272 266 268 272 274 271 256 247 254 258 256 252 246 243 248 257 258 262 266 265 263 263 265 267 267 266 267 268 269 271 272 273 274 276 277 279 280
256 256 251 258 260 266 269 278 274 271 273 277 274 269 257 253 255 252 245 243 245 247 252 257 265 270 268 265 267 269 270 270 270 271 273 274 276 277 277 278 279 280 280 282
255 251 255 259 257 263 269 274 275 272 269 269 271 270 268 266 256 251 247 249 254 254 260 262 269 270 271 269 267 269 271 273 275 276 277 277 278 279 280 281 282 283 282 283
245 250 256 258 255 262 268 272 271 270 268 266 268 267 268 265 261 257 255 254 254 256 261 264 268 267 269 273 274 275 275 277 278 279 280 281 283 283 284 284 285 285 285 287
253 253 251 251 255 256 260 267 267 265 268 263 267 268 268 265 260 258 258 259 261 262 268 272 272 272 273 276 278 280 281 281 281 282 283 285 285 285 286 287 287 289 289 289
248 242 257 252 249 247 260 267 263 262 262 268 268 269 265 263 265 265 264 267 268 270 273 276 277 279 281 282 282 283 284 285 286 287 287 287 289 289 290 290 290 291 291 292
256 251 252 258 251 250 253 261 258 262 262 264 265 264 266 269 266 266 267 273 276 274 274 278 282 284 284 286 286 287 287 288 289 290 291 291 292 292 292 293 292 293 293 293
250 242 246 249 239 233 235 238 242 257 261 262 264 264 265 269 271 272 276 278 281 281 282 285 286 287 288 289 290 291 292 292 292 293 293 293 293 294 294 294 294 295 295 295
153 138 89 116 126 128 140 158 188 222 247 264 275 274 277 284 287 292 294 288 287 289 289 290 291 292 292 293 293 293 293 293 293 293 294 294 294 295 295 296 296 296 296 296
103 89 95 93 94 96 88 74 57 6 313 300 295 292 291 290 290 289 290 292 291 292 292 292 293 294 294 294 294 295 295 295 295 295 295 296 296 297 298 298 299 299 299 299
91 85 77 72 60 15 346 321 314 309 303 301 299 295 292 291 293 293 293 293 294 294 295 295 296 297 297 296 296 297 297 297 297 297 298 298 299 300 300 301 301 301 302 302
25 345 325 315 312 307 304 302 302 302 301 301 299 298 296 293 292 292 293 294 295 296 297 297 297 298 298 298 298 298 299 299 299 300 300 301 301 302 302 303 304 305 306 306
309 305 303 305 302 300 299 297 296 296 295 295 296 296 295 294 294 294 295 296 296 297 298 298 299 299 300 300 300 301 301 301 302 302 303 303 304 305 306 307 307 308 309 309
301 301 299 301 302 299 298 296 295 295 296 296 295 295 295 295 295 295 296 296 297 298 300 301 301 302 302 302 302 302 303 305 306 306 307 308 308 309 309 310 310 311 311 311